contact:dominique.lefevre@mio.osupytheas.fr, maurice.libes@osupytheas.fr, didier.mallarino@osupytheas.fr
Project:EMSO http://www.emso-fr.org/EMSO-France
Depth: 2436.0 m
Title:EMSO Ligure Ouest : Data MII capteur MICROCAT
DateTime_Computer,Latitude,Longitude,Temperature,Conductivity,Pressure,DateTime_Instrument
DateTime_Computer,Latitude,Longitude,degC,S m-1,dbar,DateTime_Instrument
2020-02-09T00:01:08Z,42.805,6.029,13.2961,4.59964,2469.96,2020-2-09T02:01:42Z
2020-02-09T00:04:11Z,42.805,6.029,13.2963,4.59964,2470.007,2020-2-09T02:04:45Z
2020-02-09T00:07:14Z,42.805,6.029,13.2963,4.59963,2469.947,2020-2-09T02:07:49Z
2020-02-09T00:10:17Z,42.805,6.029,13.2962,4.59963,2469.937,2020-2-09T02:10:52Z
2020-02-09T00:13:21Z,42.805,6.029,13.2961,4.59963,2469.947,2020-2-09T02:13:55Z
2020-02-09T00:16:24Z,42.805,6.029,13.2961,4.59964,2469.923,2020-2-09T02:16:58Z
2020-02-09T00:19:27Z,42.805,6.029,13.2966,4.59963,2469.933,2020-2-09T02:20:01Z
2020-02-09T00:22:30Z,42.805,6.029,13.2962,4.59963,2470.007,2020-2-09T02:23:05Z
2020-02-09T00:25:33Z,42.805,6.029,13.2963,4.59964,2469.96,2020-2-09T02:26:08Z
2020-02-09T00:28:37Z,42.805,6.029,13.2961,4.59964,2469.947,2020-2-09T02:29:11Z
2020-02-09T00:31:40Z,42.805,6.029,13.2966,4.59962,2469.947,2020-2-09T02:32:14Z
2020-02-09T00:34:43Z,42.805,6.029,13.2961,4.59964,2469.947,2020-2-09T02:35:17Z
2020-02-09T00:37:46Z,42.805,6.029,13.2966,4.59964,2469.923,2020-2-09T02:38:21Z
2020-02-09T00:40:49Z,42.805,6.029,13.2961,4.59965,2469.947,2020-2-09T02:41:24Z
2020-02-09T00:43:53Z,42.805,6.029,13.2962,4.59966,2469.947,2020-2-09T02:44:27Z
2020-02-09T00:46:56Z,42.805,6.029,13.2961,4.59964,2469.96,2020-2-09T02:47:30Z
2020-02-09T00:49:59Z,42.805,6.029,13.2964,4.59969,2469.923,2020-2-09T02:50:33Z
2020-02-09T00:53:02Z,42.805,6.029,13.2963,4.59966,2469.96,2020-2-09T02:53:37Z
2020-02-09T00:56:05Z,42.805,6.029,13.2963,4.59964,2469.947,2020-2-09T02:56:40Z
2020-02-09T00:59:09Z,42.805,6.029,13.2962,4.59964,2469.923,2020-2-09T02:59:43Z
2020-02-09T01:02:12Z,42.805,6.029,13.2962,4.59964,2469.96,2020-2-09T03:02:46Z
2020-02-09T01:05:15Z,42.805,6.029,13.2963,4.59962,2469.923,2020-2-09T03:05:49Z
2020-02-09T01:08:18Z,42.805,6.029,13.2961,4.59965,2469.914,2020-2-09T03:08:53Z
2020-02-09T01:11:21Z,42.805,6.029,13.2964,4.59969,2469.914,2020-2-09T03:11:56Z
2020-02-09T01:14:25Z,42.805,6.029,13.2964,4.59964,2469.923,2020-2-09T03:14:59Z
2020-02-09T01:17:28Z,42.805,6.029,13.2966,4.59966,2469.923,2020-2-09T03:18:02Z
2020-02-09T01:20:31Z,42.805,6.029,13.2964,4.59966,2469.937,2020-2-09T03:21:05Z
2020-02-09T01:23:34Z,42.805,6.029,13.2963,4.59964,2469.923,2020-2-09T03:24:09Z
2020-02-09T01:26:37Z,42.805,6.029,13.2963,4.59962,2469.923,2020-2-09T03:27:12Z
2020-02-09T01:29:41Z,42.805,6.029,13.2964,4.59964,2469.9,2020-2-09T03:30:15Z
2020-02-09T01:32:44Z,42.805,6.029,13.2964,4.59965,2469.9,2020-2-09T03:33:18Z
2020-02-09T01:35:47Z,42.805,6.029,13.2962,4.59966,2469.923,2020-2-09T03:36:21Z
2020-02-09T01:38:50Z,42.805,6.029,13.2963,4.59962,2469.947,2020-2-09T03:39:25Z
2020-02-09T01:41:53Z,42.805,6.029,13.2958,4.59964,2469.96,2020-2-09T03:42:28Z
2020-02-09T01:44:56Z,42.805,6.029,13.2964,4.59964,2469.923,2020-2-09T03:45:31Z
2020-02-09T01:48:00Z,42.805,6.029,13.2964,4.59964,2469.923,2020-2-09T03:48:34Z
2020-02-09T01:51:03Z,42.805,6.029,13.2966,4.59966,2469.923,2020-2-09T03:51:37Z
2020-02-09T01:54:06Z,42.805,6.029,13.2963,4.59967,2469.923,2020-2-09T03:54:40Z
2020-02-09T01:57:09Z,42.805,6.029,13.2962,4.59964,2469.937,2020-2-09T03:57:44Z
2020-02-09T02:00:13Z,42.805,6.029,13.2965,4.59963,2469.947,2020-2-09T04:00:47Z
2020-02-09T02:03:16Z,42.805,6.029,13.2966,4.59963,2469.947,2020-2-09T04:03:50Z
2020-02-09T02:06:19Z,42.805,6.029,13.2966,4.59964,2469.947,2020-2-09T04:06:53Z
2020-02-09T02:09:22Z,42.805,6.029,13.2963,4.59965,2469.96,2020-2-09T04:09:57Z
2020-02-09T02:12:25Z,42.805,6.029,13.2961,4.59966,2469.937,2020-2-09T04:13:00Z
2020-02-09T02:15:28Z,42.805,6.029,13.2961,4.59966,2469.97,2020-2-09T04:16:03Z
2020-02-09T02:18:32Z,42.805,6.029,13.2965,4.59963,2469.96,2020-2-09T04:19:06Z
2020-02-09T02:21:35Z,42.805,6.029,13.2964,4.59964,2469.96,2020-2-09T04:22:09Z
2020-02-09T02:24:38Z,42.805,6.029,13.2966,4.59963,2469.9,2020-2-09T04:25:12Z
2020-02-09T02:27:41Z,42.805,6.029,13.2963,4.59964,2469.947,2020-2-09T04:28:16Z
2020-02-09T02:30:44Z,42.805,6.029,13.2960,4.59962,2469.96,2020-2-09T04:31:19Z
2020-02-09T02:33:48Z,42.805,6.029,13.2964,4.59964,2469.923,2020-2-09T04:34:22Z
2020-02-09T02:36:51Z,42.805,6.029,13.2964,4.59963,2469.947,2020-2-09T04:37:25Z
2020-02-09T02:39:54Z,42.805,6.029,13.2964,4.59964,2469.947,2020-2-09T04:40:28Z
2020-02-09T02:42:57Z,42.805,6.029,13.2961,4.59964,2469.947,2020-2-09T04:43:32Z
2020-02-09T02:46:00Z,42.805,6.029,13.2964,4.59965,2469.947,2020-2-09T04:46:35Z
2020-02-09T02:49:04Z,42.805,6.029,13.2964,4.59966,2469.984,2020-2-09T04:49:38Z
2020-02-09T02:52:07Z,42.805,6.029,13.2964,4.59963,2469.984,2020-2-09T04:52:41Z
2020-02-09T02:55:10Z,42.805,6.029,13.2965,4.59963,2469.97,2020-2-09T04:55:44Z
2020-02-09T02:58:13Z,42.805,6.029,13.2962,4.59962,2469.984,2020-2-09T04:58:48Z
2020-02-09T03:01:16Z,42.805,6.029,13.2967,4.59963,2469.993,2020-2-09T05:01:51Z
2020-02-09T03:04:20Z,42.805,6.029,13.2966,4.59963,2469.984,2020-2-09T05:04:54Z
2020-02-09T03:07:23Z,42.805,6.029,13.2961,4.59964,2469.947,2020-2-09T05:07:57Z
2020-02-09T03:10:26Z,42.805,6.029,13.2964,4.59965,2469.993,2020-2-09T05:11:00Z
2020-02-09T03:13:29Z,42.805,6.029,13.2963,4.59968,2469.984,2020-2-09T05:14:04Z
2020-02-09T03:16:32Z,42.805,6.029,13.2967,4.59965,2470.007,2020-2-09T05:17:07Z
2020-02-09T03:19:36Z,42.805,6.029,13.2964,4.59963,2470.007,2020-2-09T05:20:10Z
2020-02-09T03:22:39Z,42.805,6.029,13.2966,4.59966,2469.97,2020-2-09T05:23:13Z
2020-02-09T03:25:42Z,42.805,6.029,13.2964,4.59964,2470.007,2020-2-09T05:26:16Z
2020-02-09T03:28:45Z,42.805,6.029,13.2963,4.59964,2469.984,2020-2-09T05:29:20Z
2020-02-09T03:31:48Z,42.805,6.029,13.2963,4.59964,2469.993,2020-2-09T05:32:23Z
2020-02-09T03:34:52Z,42.805,6.029,13.2965,4.59963,2470.017,2020-2-09T05:35:26Z
2020-02-09T03:37:55Z,42.805,6.029,13.2965,4.59964,2470.017,2020-2-09T05:38:29Z
2020-02-09T03:40:58Z,42.805,6.029,13.2966,4.59963,2470.017,2020-2-09T05:41:33Z
2020-02-09T03:44:01Z,42.805,6.029,13.2964,4.59964,2470.03,2020-2-09T05:44:36Z
2020-02-09T03:47:05Z,42.805,6.029,13.2961,4.59968,2470.017,2020-2-09T05:47:39Z
2020-02-09T03:50:08Z,42.805,6.029,13.2964,4.59964,2470.017,2020-2-09T05:50:42Z
2020-02-09T03:53:11Z,42.805,6.029,13.2963,4.59965,2470.03,2020-2-09T05:53:45Z
2020-02-09T03:56:14Z,42.805,6.029,13.2966,4.59966,2470.017,2020-2-09T05:56:49Z
2020-02-09T03:59:18Z,42.805,6.029,13.2965,4.59968,2470.03,2020-2-09T05:59:52Z
2020-02-09T04:02:21Z,42.805,6.029,13.2964,4.59964,2470.04,2020-2-09T06:02:55Z
2020-02-09T04:05:24Z,42.805,6.029,13.2963,4.59963,2470.063,2020-2-09T06:05:58Z
2020-02-09T04:08:27Z,42.805,6.029,13.2964,4.59964,2470.063,2020-2-09T06:09:02Z
2020-02-09T04:11:30Z,42.805,6.029,13.2961,4.59963,2470.087,2020-2-09T06:12:05Z
2020-02-09T04:14:34Z,42.805,6.029,13.2967,4.59964,2470.04,2020-2-09T06:15:08Z
2020-02-09T04:17:37Z,42.805,6.029,13.2964,4.59964,2470.063,2020-2-09T06:18:11Z
2020-02-09T04:20:40Z,42.805,6.029,13.2964,4.59964,2470.087,2020-2-09T06:21:14Z
2020-02-09T04:23:43Z,42.805,6.029,13.2963,4.59966,2470.03,2020-2-09T06:24:18Z
2020-02-09T04:26:46Z,42.805,6.029,13.2964,4.59964,2470.063,2020-2-09T06:27:21Z
2020-02-09T04:29:50Z,42.805,6.029,13.2967,4.59964,2470.1,2020-2-09T06:30:24Z
2020-02-09T04:32:53Z,42.805,6.029,13.2965,4.59963,2470.077,2020-2-09T06:33:27Z
2020-02-09T04:35:56Z,42.805,6.029,13.2964,4.59964,2470.063,2020-2-09T06:36:30Z
2020-02-09T04:38:59Z,42.805,6.029,13.2964,4.59964,2470.1,2020-2-09T06:39:33Z
2020-02-09T04:42:02Z,42.805,6.029,13.2962,4.59964,2470.1,2020-2-09T06:42:37Z
2020-02-09T04:45:05Z,42.805,6.029,13.2965,4.59965,2470.124,2020-2-09T06:45:40Z
2020-02-09T04:48:09Z,42.805,6.029,13.2968,4.59966,2470.1,2020-2-09T06:48:43Z
2020-02-09T04:51:12Z,42.805,6.029,13.2966,4.59968,2470.11,2020-2-09T06:51:46Z
2020-02-09T04:54:15Z,42.805,6.029,13.2967,4.59965,2470.11,2020-2-09T06:54:49Z
2020-02-09T04:57:18Z,42.805,6.029,13.2964,4.59966,2470.133,2020-2-09T06:57:52Z
2020-02-09T05:00:21Z,42.805,6.029,13.2967,4.59966,2470.11,2020-2-09T07:00:56Z
2020-02-09T05:03:24Z,42.805,6.029,13.2968,4.59966,2470.087,2020-2-09T07:03:59Z
2020-02-09T05:06:28Z,42.805,6.029,13.2966,4.59968,2470.11,2020-2-09T07:07:02Z
2020-02-09T05:09:31Z,42.805,6.029,13.2967,4.59964,2470.147,2020-2-09T07:10:05Z
2020-02-09T05:12:34Z,42.805,6.029,13.2963,4.59964,2470.147,2020-2-09T07:13:08Z
2020-02-09T05:15:37Z,42.805,6.029,13.2962,4.59964,2470.133,2020-2-09T07:16:12Z
2020-02-09T05:18:40Z,42.805,6.029,13.2966,4.59968,2470.133,2020-2-09T07:19:15Z
2020-02-09T05:21:44Z,42.805,6.029,13.2967,4.59968,2470.133,2020-2-09T07:22:18Z
2020-02-09T05:24:47Z,42.805,6.029,13.2968,4.59963,2470.194,2020-2-09T07:25:21Z
2020-02-09T05:27:50Z,42.805,6.029,13.2962,4.59964,2470.171,2020-2-09T07:28:24Z
2020-02-09T05:30:53Z,42.805,6.029,13.2967,4.59963,2470.133,2020-2-09T07:31:28Z
2020-02-09T05:33:57Z,42.805,6.029,13.2964,4.59965,2470.156,2020-2-09T07:34:31Z
2020-02-09T05:37:00Z,42.805,6.029,13.2962,4.59964,2470.143,2020-2-09T07:37:34Z
2020-02-09T05:40:03Z,42.805,6.029,13.2964,4.59970,2470.156,2020-2-09T07:40:38Z
2020-02-09T05:43:06Z,42.805,6.029,13.2964,4.59965,2470.194,2020-2-09T07:43:41Z
2020-02-09T05:46:10Z,42.805,6.029,13.2964,4.59964,2470.171,2020-2-09T07:46:44Z
2020-02-09T05:49:13Z,42.805,6.029,13.2962,4.59968,2470.18,2020-2-09T07:49:47Z
2020-02-09T05:52:16Z,42.805,6.029,13.2968,4.59967,2470.203,2020-2-09T07:52:50Z
2020-02-09T05:55:19Z,42.805,6.029,13.2964,4.59966,2470.203,2020-2-09T07:55:53Z
2020-02-09T05:58:23Z,42.805,6.029,13.2963,4.59964,2470.18,2020-2-09T07:58:57Z
2020-02-09T06:01:26Z,42.805,6.029,13.2968,4.59973,2470.171,2020-2-09T08:02:00Z
2020-02-09T06:04:29Z,42.805,6.029,13.2961,4.59966,2470.171,2020-2-09T08:05:03Z
2020-02-09T06:07:32Z,42.805,6.029,13.2966,4.59966,2470.18,2020-2-09T08:08:07Z
2020-02-09T06:10:35Z,42.805,6.029,13.2968,4.59966,2470.203,2020-2-09T08:11:10Z
2020-02-09T06:13:39Z,42.805,6.029,13.2962,4.59969,2470.18,2020-2-09T08:14:13Z
2020-02-09T06:16:42Z,42.805,6.029,13.2961,4.59964,2470.18,2020-2-09T08:17:16Z
2020-02-09T06:19:45Z,42.805,6.029,13.2967,4.59966,2470.203,2020-2-09T08:20:19Z
2020-02-09T06:22:48Z,42.805,6.029,13.2964,4.59966,2470.203,2020-2-09T08:23:23Z
2020-02-09T06:25:51Z,42.805,6.029,13.2964,4.59964,2470.203,2020-2-09T08:26:26Z
2020-02-09T06:28:55Z,42.805,6.029,13.2963,4.59966,2470.18,2020-2-09T08:29:29Z
2020-02-09T06:31:58Z,42.805,6.029,13.2966,4.59964,2470.203,2020-2-09T08:32:32Z
2020-02-09T06:35:01Z,42.805,6.029,13.2964,4.59968,2470.217,2020-2-09T08:35:35Z
2020-02-09T06:38:04Z,42.805,6.029,13.2964,4.59965,2470.217,2020-2-09T08:38:38Z
2020-02-09T06:41:07Z,42.805,6.029,13.2964,4.59966,2470.264,2020-2-09T08:41:42Z
2020-02-09T06:44:10Z,42.805,6.029,13.2961,4.59966,2470.217,2020-2-09T08:44:45Z
2020-02-09T06:47:14Z,42.805,6.029,13.2962,4.59967,2470.203,2020-2-09T08:47:48Z
2020-02-09T06:50:17Z,42.805,6.029,13.2967,4.59966,2470.227,2020-2-09T08:50:51Z
2020-02-09T06:53:20Z,42.805,6.029,13.2963,4.59965,2470.264,2020-2-09T08:53:54Z
2020-02-09T06:56:23Z,42.805,6.029,13.2965,4.59964,2470.217,2020-2-09T08:56:58Z
2020-02-09T06:59:26Z,42.805,6.029,13.2963,4.59964,2470.227,2020-2-09T09:00:01Z
2020-02-09T07:02:29Z,42.805,6.029,13.2967,4.59966,2470.203,2020-2-09T09:03:04Z
2020-02-09T07:05:33Z,42.805,6.029,13.2965,4.59966,2470.203,2020-2-09T09:06:07Z
2020-02-09T07:08:36Z,42.805,6.029,13.2966,4.59968,2470.217,2020-2-09T09:09:10Z
2020-02-09T07:11:39Z,42.805,6.029,13.2963,4.59965,2470.227,2020-2-09T09:12:14Z
2020-02-09T07:14:42Z,42.805,6.029,13.2967,4.59969,2470.227,2020-2-09T09:15:17Z
2020-02-09T07:17:45Z,42.805,6.029,13.2966,4.59968,2470.217,2020-2-09T09:18:20Z
2020-02-09T07:20:49Z,42.805,6.029,13.2959,4.59964,2470.227,2020-2-09T09:21:23Z
2020-02-09T07:23:52Z,42.805,6.029,13.2968,4.59964,2470.227,2020-2-09T09:24:26Z
2020-02-09T07:26:55Z,42.805,6.029,13.2965,4.59963,2470.227,2020-2-09T09:27:29Z
2020-02-09T07:29:58Z,42.805,6.029,13.2968,4.59965,2470.24,2020-2-09T09:30:33Z
2020-02-09T07:33:01Z,42.805,6.029,13.2964,4.59966,2470.25,2020-2-09T09:33:36Z
2020-02-09T07:36:05Z,42.805,6.029,13.2967,4.59966,2470.24,2020-2-09T09:36:39Z
2020-02-09T07:39:08Z,42.805,6.029,13.2962,4.59964,2470.24,2020-2-09T09:39:42Z
2020-02-09T07:42:11Z,42.805,6.029,13.2967,4.59973,2470.203,2020-2-09T09:42:46Z
2020-02-09T07:45:14Z,42.805,6.029,13.2967,4.59966,2470.203,2020-2-09T09:45:49Z
2020-02-09T07:48:17Z,42.805,6.029,13.2964,4.59965,2470.25,2020-2-09T09:48:52Z
2020-02-09T07:51:21Z,42.805,6.029,13.2967,4.59965,2470.227,2020-2-09T09:51:55Z
2020-02-09T07:54:24Z,42.805,6.029,13.2967,4.59964,2470.227,2020-2-09T09:54:58Z
2020-02-09T07:57:27Z,42.805,6.029,13.2967,4.59966,2470.24,2020-2-09T09:58:02Z
2020-02-09T08:00:31Z,42.805,6.029,13.2964,4.59966,2470.217,2020-2-09T10:01:05Z
2020-02-09T08:03:34Z,42.805,6.029,13.2960,4.59965,2470.203,2020-2-09T10:04:08Z
2020-02-09T08:06:37Z,42.805,6.029,13.2967,4.59966,2470.227,2020-2-09T10:07:11Z
2020-02-09T08:09:40Z,42.805,6.029,13.2968,4.59966,2470.227,2020-2-09T10:10:15Z
2020-02-09T08:12:44Z,42.805,6.029,13.2964,4.59964,2470.227,2020-2-09T10:13:18Z
2020-02-09T08:15:47Z,42.805,6.029,13.2964,4.59964,2470.264,2020-2-09T10:16:21Z
2020-02-09T08:18:50Z,42.805,6.029,13.2963,4.59966,2470.24,2020-2-09T10:19:24Z
2020-02-09T08:21:53Z,42.805,6.029,13.2962,4.59964,2470.227,2020-2-09T10:22:28Z
2020-02-09T08:24:56Z,42.805,6.029,13.2964,4.59966,2470.24,2020-2-09T10:25:31Z
2020-02-09T08:28:00Z,42.805,6.029,13.2961,4.59973,2470.25,2020-2-09T10:28:34Z
2020-02-09T08:31:03Z,42.805,6.029,13.2964,4.59966,2470.264,2020-2-09T10:31:37Z
2020-02-09T08:34:06Z,42.805,6.029,13.2962,4.59966,2470.227,2020-2-09T10:34:41Z
2020-02-09T08:37:09Z,42.805,6.029,13.2964,4.59965,2470.203,2020-2-09T10:37:44Z
2020-02-09T08:40:12Z,42.805,6.029,13.2965,4.59964,2470.194,2020-2-09T10:40:47Z
2020-02-09T08:43:16Z,42.805,6.029,13.2964,4.59966,2470.227,2020-2-09T10:43:50Z
2020-02-09T08:46:19Z,42.805,6.029,13.2966,4.59966,2470.217,2020-2-09T10:46:53Z
2020-02-09T08:49:22Z,42.805,6.029,13.2964,4.59973,2470.227,2020-2-09T10:49:57Z
2020-02-09T08:52:25Z,42.805,6.029,13.2963,4.59974,2470.203,2020-2-09T10:53:00Z
2020-02-09T08:55:28Z,42.805,6.029,13.2961,4.59966,2470.227,2020-2-09T10:56:03Z
2020-02-09T08:58:32Z,42.805,6.029,13.2965,4.59965,2470.217,2020-2-09T10:59:06Z
2020-02-09T09:01:35Z,42.805,6.029,13.2961,4.59966,2470.18,2020-2-09T11:02:09Z
2020-02-09T09:04:38Z,42.805,6.029,13.2963,4.59966,2470.203,2020-2-09T11:05:12Z
2020-02-09T09:07:41Z,42.805,6.029,13.2967,4.59969,2470.227,2020-2-09T11:08:16Z
2020-02-09T09:10:44Z,42.805,6.029,13.2966,4.59967,2470.194,2020-2-09T11:11:19Z
2020-02-09T09:13:48Z,42.805,6.029,13.2961,4.59976,2470.217,2020-2-09T11:14:22Z
2020-02-09T09:16:51Z,42.805,6.029,13.2966,4.59973,2470.227,2020-2-09T11:17:25Z
2020-02-09T09:19:54Z,42.805,6.029,13.2964,4.59977,2470.217,2020-2-09T11:20:29Z
2020-02-09T09:22:57Z,42.805,6.029,13.2964,4.59966,2470.217,2020-2-09T11:23:32Z
2020-02-09T09:26:01Z,42.805,6.029,13.2962,4.59970,2470.18,2020-2-09T11:26:35Z
2020-02-09T09:29:04Z,42.805,6.029,13.2964,4.59966,2470.18,2020-2-09T11:29:38Z
2020-02-09T09:32:07Z,42.805,6.029,13.2964,4.59966,2470.217,2020-2-09T11:32:41Z
2020-02-09T09:35:10Z,42.805,6.029,13.2963,4.59966,2470.231,2020-2-09T11:35:45Z
2020-02-09T09:38:13Z,42.805,6.029,13.2967,4.59966,2470.203,2020-2-09T11:38:48Z
2020-02-09T09:41:17Z,42.805,6.029,13.2959,4.59969,2470.203,2020-2-09T11:41:51Z
2020-02-09T09:44:20Z,42.805,6.029,13.2966,4.59968,2470.194,2020-2-09T11:44:54Z
2020-02-09T09:47:23Z,42.805,6.029,13.2964,4.59967,2470.203,2020-2-09T11:47:57Z
2020-02-09T09:50:26Z,42.805,6.029,13.2964,4.59966,2470.18,2020-2-09T11:51:01Z
2020-02-09T09:53:29Z,42.805,6.029,13.2965,4.59966,2470.194,2020-2-09T11:54:04Z
2020-02-09T09:56:32Z,42.805,6.029,13.2961,4.59966,2470.194,2020-2-09T11:57:07Z
2020-02-09T09:59:36Z,42.805,6.029,13.2959,4.59966,2470.217,2020-2-09T12:00:10Z
2020-02-09T10:02:39Z,42.805,6.029,13.2964,4.59966,2470.156,2020-2-09T12:03:14Z
2020-02-09T10:05:42Z,42.805,6.029,13.2967,4.59966,2470.203,2020-2-09T12:06:17Z
2020-02-09T10:08:46Z,42.805,6.029,13.2963,4.59968,2470.18,2020-2-09T12:09:20Z
2020-02-09T10:11:49Z,42.805,6.029,13.2968,4.59967,2470.203,2020-2-09T12:12:23Z
2020-02-09T10:14:52Z,42.805,6.029,13.2961,4.59966,2470.18,2020-2-09T12:15:26Z
2020-02-09T10:17:55Z,42.805,6.029,13.2965,4.59966,2470.156,2020-2-09T12:18:30Z
2020-02-09T10:20:58Z,42.805,6.029,13.2964,4.59966,2470.18,2020-2-09T12:21:33Z
2020-02-09T10:24:02Z,42.805,6.029,13.2966,4.59966,2470.133,2020-2-09T12:24:36Z
2020-02-09T10:27:05Z,42.805,6.029,13.2961,4.59966,2470.156,2020-2-09T12:27:39Z
2020-02-09T10:30:08Z,42.805,6.029,13.2967,4.59975,2470.171,2020-2-09T12:30:42Z
2020-02-09T10:33:11Z,42.805,6.029,13.2963,4.59966,2470.18,2020-2-09T12:33:46Z
2020-02-09T10:36:14Z,42.805,6.029,13.2966,4.59966,2470.156,2020-2-09T12:36:49Z
2020-02-09T10:39:18Z,42.805,6.029,13.2964,4.59966,2470.133,2020-2-09T12:39:52Z
2020-02-09T10:42:21Z,42.805,6.029,13.2966,4.59966,2470.171,2020-2-09T12:42:55Z
2020-02-09T10:45:24Z,42.805,6.029,13.2965,4.59966,2470.194,2020-2-09T12:45:58Z
2020-02-09T10:48:27Z,42.805,6.029,13.2964,4.59966,2470.171,2020-2-09T12:49:02Z
2020-02-09T10:51:30Z,42.805,6.029,13.2962,4.59966,2470.147,2020-2-09T12:52:05Z
2020-02-09T10:54:33Z,42.805,6.029,13.2965,4.59966,2470.156,2020-2-09T12:55:08Z
2020-02-09T10:57:37Z,42.805,6.029,13.2964,4.59966,2470.124,2020-2-09T12:58:11Z
2020-02-09T11:00:40Z,42.805,6.029,13.2963,4.59968,2470.133,2020-2-09T13:01:14Z
2020-02-09T11:03:43Z,42.805,6.029,13.2962,4.59965,2470.133,2020-2-09T13:04:17Z
2020-02-09T11:06:46Z,42.805,6.029,13.2964,4.59966,2470.133,2020-2-09T13:07:21Z
2020-02-09T11:09:49Z,42.805,6.029,13.2962,4.59967,2470.133,2020-2-09T13:10:24Z
2020-02-09T11:12:53Z,42.805,6.029,13.2964,4.59969,2470.11,2020-2-09T13:13:27Z
2020-02-09T11:15:56Z,42.805,6.029,13.2966,4.59966,2470.11,2020-2-09T13:16:30Z
2020-02-09T11:18:59Z,42.805,6.029,13.2964,4.59966,2470.063,2020-2-09T13:19:33Z
2020-02-09T11:22:02Z,42.805,6.029,13.2966,4.59966,2470.147,2020-2-09T13:22:37Z
2020-02-09T11:25:05Z,42.805,6.029,13.2963,4.59969,2470.11,2020-2-09T13:25:40Z
2020-02-09T11:28:09Z,42.805,6.029,13.2963,4.59974,2470.1,2020-2-09T13:28:43Z
2020-02-09T11:31:12Z,42.805,6.029,13.2958,4.59973,2470.11,2020-2-09T13:31:46Z
2020-02-09T11:34:15Z,42.805,6.029,13.2965,4.59966,2470.087,2020-2-09T13:34:49Z
2020-02-09T11:37:18Z,42.805,6.029,13.2964,4.59966,2470.087,2020-2-09T13:37:53Z
2020-02-09T11:40:21Z,42.805,6.029,13.2963,4.59968,2470.1,2020-2-09T13:40:56Z
2020-02-09T11:43:25Z,42.805,6.029,13.2959,4.59966,2470.063,2020-2-09T13:43:59Z
2020-02-09T11:46:28Z,42.805,6.029,13.2962,4.59966,2470.077,2020-2-09T13:47:02Z
2020-02-09T11:49:31Z,42.805,6.029,13.2966,4.59966,2470.1,2020-2-09T13:50:06Z
2020-02-09T11:52:34Z,42.805,6.029,13.2964,4.59966,2470.077,2020-2-09T13:53:09Z
2020-02-09T11:55:37Z,42.805,6.029,13.2966,4.59966,2470.087,2020-2-09T13:56:12Z
2020-02-09T11:58:41Z,42.805,6.029,13.2967,4.59973,2470.04,2020-2-09T13:59:15Z
2020-02-09T12:01:44Z,42.805,6.029,13.2964,4.59966,2470.077,2020-2-09T14:02:18Z
2020-02-09T12:04:47Z,42.805,6.029,13.2968,4.59966,2470.063,2020-2-09T14:05:22Z
2020-02-09T12:07:50Z,42.805,6.029,13.2962,4.59966,2470.04,2020-2-09T14:08:25Z
2020-02-09T12:10:54Z,42.805,6.029,13.2965,4.59969,2470.063,2020-2-09T14:11:28Z
2020-02-09T12:13:57Z,42.805,6.029,13.2965,4.59966,2470.063,2020-2-09T14:14:31Z
2020-02-09T12:17:00Z,42.805,6.029,13.2964,4.59967,2470.1,2020-2-09T14:17:35Z
2020-02-09T12:20:03Z,42.805,6.029,13.2966,4.59966,2470.017,2020-2-09T14:20:38Z
2020-02-09T12:23:06Z,42.805,6.029,13.2967,4.59966,2470.063,2020-2-09T14:23:41Z
2020-02-09T12:26:10Z,42.805,6.029,13.2964,4.59967,2470.04,2020-2-09T14:26:44Z
2020-02-09T12:29:13Z,42.805,6.029,13.2965,4.59966,2470.077,2020-2-09T14:29:47Z
2020-02-09T12:32:16Z,42.805,6.029,13.2968,4.59966,2470.04,2020-2-09T14:32:50Z
2020-02-09T12:35:19Z,42.805,6.029,13.2967,4.59966,2470.017,2020-2-09T14:35:54Z
2020-02-09T12:38:22Z,42.805,6.029,13.2964,4.59965,2470.017,2020-2-09T14:38:57Z
2020-02-09T12:41:26Z,42.805,6.029,13.2968,4.59967,2470.063,2020-2-09T14:42:00Z
2020-02-09T12:44:29Z,42.805,6.029,13.2965,4.59967,2470.053,2020-2-09T14:45:03Z
2020-02-09T12:47:32Z,42.805,6.029,13.2966,4.59966,2470.003,2020-2-09T14:48:07Z
2020-02-09T12:50:35Z,42.805,6.029,13.2963,4.59970,2470.017,2020-2-09T14:51:10Z
2020-02-09T12:53:38Z,42.805,6.029,13.2967,4.59976,2470.017,2020-2-09T14:54:13Z
2020-02-09T12:56:42Z,42.805,6.029,13.2964,4.59965,2470.04,2020-2-09T14:57:16Z
2020-02-09T12:59:45Z,42.805,6.029,13.2967,4.59966,2470.017,2020-2-09T15:00:20Z
2020-02-09T13:02:48Z,42.805,6.029,13.2969,4.59967,2470.017,2020-2-09T15:03:23Z
2020-02-09T13:05:52Z,42.805,6.029,13.2961,4.59969,2469.993,2020-2-09T15:06:26Z
2020-02-09T13:08:55Z,42.805,6.029,13.2963,4.59966,2470.017,2020-2-09T15:09:29Z
2020-02-09T13:11:58Z,42.805,6.029,13.2965,4.59966,2469.979,2020-2-09T15:12:32Z
2020-02-09T13:15:01Z,42.805,6.029,13.2963,4.59968,2469.993,2020-2-09T15:15:36Z
2020-02-09T13:18:04Z,42.805,6.029,13.2964,4.59967,2469.993,2020-2-09T15:18:39Z
2020-02-09T13:21:08Z,42.805,6.029,13.2964,4.59966,2470.04,2020-2-09T15:21:42Z
2020-02-09T13:24:11Z,42.805,6.029,13.2965,4.59966,2469.993,2020-2-09T15:24:45Z
2020-02-09T13:27:14Z,42.805,6.029,13.2966,4.59966,2469.993,2020-2-09T15:27:48Z
2020-02-09T13:30:17Z,42.805,6.029,13.2966,4.59967,2470.017,2020-2-09T15:30:52Z
2020-02-09T13:33:20Z,42.805,6.029,13.2961,4.59966,2469.984,2020-2-09T15:33:55Z
2020-02-09T13:36:24Z,42.805,6.029,13.2963,4.59965,2469.993,2020-2-09T15:36:58Z
2020-02-09T13:39:27Z,42.805,6.029,13.2964,4.59967,2470.03,2020-2-09T15:40:01Z
2020-02-09T13:42:30Z,42.805,6.029,13.2963,4.59967,2469.947,2020-2-09T15:43:04Z
2020-02-09T13:45:33Z,42.805,6.029,13.2965,4.59966,2470.007,2020-2-09T15:46:08Z
2020-02-09T13:48:36Z,42.805,6.029,13.2966,4.59965,2469.984,2020-2-09T15:49:11Z
2020-02-09T13:51:40Z,42.805,6.029,13.2963,4.59966,2470.03,2020-2-09T15:52:14Z
2020-02-09T13:54:43Z,42.805,6.029,13.2967,4.59966,2469.993,2020-2-09T15:55:17Z
2020-02-09T13:57:46Z,42.805,6.029,13.2964,4.59966,2469.97,2020-2-09T15:58:20Z
2020-02-09T14:00:50Z,42.805,6.029,13.2963,4.59966,2470.007,2020-2-09T16:01:24Z
2020-02-09T14:03:53Z,42.805,6.029,13.2964,4.59967,2469.984,2020-2-09T16:04:27Z
2020-02-09T14:06:56Z,42.805,6.029,13.2967,4.59966,2469.984,2020-2-09T16:07:30Z
2020-02-09T14:09:59Z,42.805,6.029,13.2964,4.59969,2469.993,2020-2-09T16:10:34Z
2020-02-09T14:13:02Z,42.805,6.029,13.2966,4.59967,2469.993,2020-2-09T16:13:37Z
2020-02-09T14:16:06Z,42.805,6.029,13.2967,4.59966,2469.993,2020-2-09T16:16:40Z
2020-02-09T14:19:09Z,42.805,6.029,13.2965,4.59965,2470.017,2020-2-09T16:19:43Z
2020-02-09T14:22:12Z,42.805,6.029,13.2964,4.59966,2469.97,2020-2-09T16:22:46Z
2020-02-09T14:25:15Z,42.805,6.029,13.2963,4.59966,2469.96,2020-2-09T16:25:50Z
2020-02-09T14:28:18Z,42.805,6.029,13.2962,4.59966,2469.97,2020-2-09T16:28:53Z
2020-02-09T14:31:22Z,42.805,6.029,13.2969,4.59966,2470.03,2020-2-09T16:31:56Z
2020-02-09T14:34:25Z,42.805,6.029,13.2968,4.59966,2470.03,2020-2-09T16:34:59Z
2020-02-09T14:37:28Z,42.805,6.029,13.2965,4.59965,2469.984,2020-2-09T16:38:02Z
2020-02-09T14:40:31Z,42.805,6.029,13.2964,4.59966,2469.96,2020-2-09T16:41:06Z
2020-02-09T14:43:34Z,42.805,6.029,13.2963,4.59965,2469.993,2020-2-09T16:44:09Z
2020-02-09T14:46:38Z,42.805,6.029,13.2966,4.59967,2470.007,2020-2-09T16:47:12Z
2020-02-09T14:49:41Z,42.805,6.029,13.2964,4.59973,2469.96,2020-2-09T16:50:15Z
2020-02-09T14:52:44Z,42.805,6.029,13.2963,4.59966,2469.947,2020-2-09T16:53:18Z
2020-02-09T14:55:47Z,42.805,6.029,13.2962,4.59966,2469.96,2020-2-09T16:56:22Z
2020-02-09T14:58:50Z,42.805,6.029,13.2962,4.59965,2470.007,2020-2-09T16:59:25Z
2020-02-09T15:01:54Z,42.805,6.029,13.2966,4.59966,2469.97,2020-2-09T17:02:28Z
2020-02-09T15:04:57Z,42.805,6.029,13.2963,4.59966,2469.984,2020-2-09T17:05:31Z
2020-02-09T15:08:00Z,42.805,6.029,13.2961,4.59966,2469.97,2020-2-09T17:08:34Z
2020-02-09T15:11:03Z,42.805,6.029,13.2964,4.59966,2469.96,2020-2-09T17:11:38Z
2020-02-09T15:14:06Z,42.805,6.029,13.2964,4.59968,2469.97,2020-2-09T17:14:41Z